Peoria, IL

11:39 AM CST on November 15, 2019 (GMT -0600)
Greater Peoria Regional

Weather History for KPIA - September, 2019

Change the Weather History Date:

Sunday, September 8, 2019

  Actual Average Record
Temperature  
Mean Temperature 66 °F 69 °F  
Max Temperature 70 °F 80 °F 100 °F (1922)
Min Temperature 62 °F 59 °F 39 °F (1986)
Degree Days  
Heating Degree Days 0 1  
Month to date heating degree days 0 7  
Since 1 July heating degree days 0 13  
Cooling Degree Days 1 5  
Month to date cooling degree days 33 50  
Year to date cooling degree days 1015 957  
Growing Degree Days 16 (Base 50)    
Moisture  
Dew Point 61 °F    
Average Humidity 84    
Maximum Humidity 93    
Minimum Humidity 71    
Precipitation  
Precipitation 0.67 in 0.11 in 1.92 in (1927)
Month to date precipitation 1.36 0.89  
Year to date precipitation 34.88 25.84  
Snow  
Snow 0.00 in 0.00 in 0.00 in ()
Month to date snowfall 0.0 0.0  
Since 1 July snowfall 0.0 0.0  
Since 1 September snowfall 0.0 0.0  
Snow Depth 0.00 in    
Sea Level Pressure  
Sea Level Pressure 30.07 in    
Wind  
Wind Speed 4 mph ()    
Max Wind Speed 13 mph    
Max Gust Speed 18 mph    
Visibility 8.5 miles    
Events Rain    
T = Trace of Precipitation, MM = Missing Value Source: Averaged Metar Reports

Daily Weather History Graph

Daily Weather History Graph

Search for Another Location

Airport or City:

Astronomy

Sep. 08, 2019 Rise Set
Actual Time 6:32 AM CDT 7:19 PM CDT
Civil Twilight 6:04 AM CDT 7:47 PM CDT
Nautical Twilight 5:31 AM CDT 8:20 PM CDT
Astronomical Twilight 4:57 AM CDT 8:54 PM CDT
Moon 4:30 PM CDT (9/8) 1:10 AM CDT (9/8)
Length of Visible Light 13h 42m
Length of Day
12h 47m
Waxing Gibbous, 75% of the Moon is Illuminated
Sep 8
Waxing Gibbous
Sep 13
Full
Sep 21
Last Quarter
Sep 28
New
Oct 5
First Quarter

Hourly Weather History & Observations

Time (CDT) Temp. Dew Point Humidity Pressure Visibility Wind Dir Wind Speed Gust Speed Precip Events Conditions
12:54 AM 66.0 °F 62.1 °F 87% 30.02 in 10.0 mi Calm Calm - 0.01 in   Scattered Clouds
1:54 AM 64.9 °F 62.1 °F 90% 30.03 in 10.0 mi Calm Calm - N/A   Overcast
2:54 AM 64.9 °F 62.1 °F 90% 30.02 in 10.0 mi Calm Calm - 0.00 in   Mostly Cloudy
3:54 AM 64.9 °F 62.1 °F 90% 30.04 in 10.0 mi Calm Calm - 0.00 in Rain Light Rain
4:34 AM 64.0 °F 62.1 °F 93% 30.13 in 2.0 mi WNW 9.2 mph - 0.11 in Rain Heavy Rain
4:54 AM 63.0 °F 60.1 °F 90% 30.10 in 2.0 mi WNW 3.5 mph - 0.28 in Rain Heavy Rain
5:07 AM 63.0 °F 61.0 °F 93% 30.10 in 1.8 mi Calm Calm - 0.08 in Rain Heavy Rain
5:17 AM 63.0 °F 61.0 °F 93% 30.10 in 2.5 mi Calm Calm - 0.13 in Rain Rain
5:35 AM 63.0 °F 61.0 °F 93% 30.09 in 3.0 mi SSE 4.6 mph - 0.22 in Rain Heavy Rain
5:54 AM 62.1 °F 60.1 °F 93% 30.06 in 5.0 mi ESE 4.6 mph - 0.29 in Rain Rain
6:15 AM 62.1 °F 60.1 °F 93% 30.04 in 5.0 mi ESE 8.1 mph - 0.06 in Rain Light Rain
6:54 AM 62.1 °F 60.1 °F 93% 30.03 in 10.0 mi East 6.9 mph - 0.09 in   Overcast
7:54 AM 63.0 °F 60.1 °F 90% 30.02 in 10.0 mi East 5.8 mph - N/A   Clear
8:54 AM 64.9 °F 61.0 °F 87% 30.07 in 10.0 mi ENE 3.5 mph - N/A   Overcast
9:54 AM 66.9 °F 61.0 °F 81% 30.08 in 10.0 mi East 6.9 mph - N/A   Mostly Cloudy
10:54 AM 69.1 °F 62.1 °F 78% 30.08 in 10.0 mi East 10.4 mph - N/A   Mostly Cloudy
11:36 AM 69.1 °F 61.0 °F 75% 30.09 in 10.0 mi North - - N/A   Overcast
11:54 AM 70.0 °F 60.1 °F 71% 30.09 in 10.0 mi Calm Calm - N/A   Overcast
12:31 PM 69.1 °F 60.1 °F 73% 30.08 in 10.0 mi SE 5.8 mph - N/A   Overcast
12:54 PM 69.1 °F 60.1 °F 73% 30.07 in 10.0 mi SE 8.1 mph - N/A   Overcast
1:31 PM 69.1 °F 60.1 °F 73% 30.07 in 10.0 mi ESE 5.8 mph 16.1 mph N/A   Overcast
1:54 PM 69.1 °F 61.0 °F 75% 30.06 in 10.0 mi East 8.1 mph - N/A   Overcast
2:54 PM 70.0 °F 60.1 °F 71% 30.04 in 10.0 mi SE 6.9 mph - N/A   Overcast
3:54 PM 69.1 °F 61.0 °F 75% 30.04 in 10.0 mi ESE 8.1 mph - N/A   Overcast
4:54 PM 69.1 °F 62.1 °F 78% 30.04 in 10.0 mi East 6.9 mph - N/A   Overcast
5:54 PM 68.0 °F 62.1 °F 81% 30.05 in 10.0 mi East 6.9 mph - N/A   Overcast
6:54 PM 69.1 °F 63.0 °F 81% 30.06 in 10.0 mi ESE 5.8 mph - N/A   Overcast
7:54 PM 68.0 °F 63.0 °F 84% 30.07 in 10.0 mi East 4.6 mph - N/A   Overcast
8:54 PM 68.0 °F 63.0 °F 84% 30.09 in 10.0 mi East 6.9 mph - N/A   Overcast
9:54 PM 68.0 °F 62.1 °F 81% 30.11 in 10.0 mi ENE 8.1 mph - N/A   Overcast
10:54 PM 66.9 °F 62.1 °F 84% 30.10 in 10.0 mi East 8.1 mph - N/A   Overcast
11:19 PM 66.0 °F 62.1 °F 87% 30.09 in 10.0 mi ESE 6.9 mph - N/A   Scattered Clouds
11:54 PM 66.9 °F 62.1 °F 84% 30.09 in 10.0 mi East 6.9 mph - N/A   Mostly Cloudy